This demonstration page uses our WeatherBlox Daily Observations layout. Learn more.

Left ArrowRight Arrow

36.17497, -115.13722

Hourly Observations for January 31, 2016

Temp ( °F °C ) Dew Point ( °F °C ) Humidity (%) Winds ( mph kmh ) Pressure ( in mb ) Visibility ( mi km ) Precip ( " mm )
12:53 am 00:53 Partly Cloudy 52 11.1 31 -0.6 45 45 NNW 6 9 29.87 1012 10 16.0934 0 0
1:53 am 01:53 Mostly Cloudy 50 10 31 -0.6 48 48 ESE 3 6 29.87 1012 10 16.0934 0 0
2:53 am 02:53 Cloudy 51 10.6 31 -0.6 46 46 Calm 29.85 1011 10 16.0934 0 0
3:53 am 03:53 Mostly Cloudy 49 9.4 30 -1.1 48 48 Calm 29.84 1011 10 16.0934 0 0
4:53 am 04:53 Mostly Clear 48 8.9 28 -2.2 46 46 ESE 8 13 29.82 1010 10 16.0934 0 0
5:53 am 05:53 Clear 48 8.9 28 -2.2 46 46 Calm 29.82 1010 10 16.0934 0 0
6:53 am 06:53 Sunny 48 8.9 28 -2.2 46 46 SE 5 7 29.81 1010 10 16.0934 0 0
7:53 am 07:53 Cloudy 49 9.4 28 -2.2 44 44 SE 10 17 29.8 1009 10 16.0934 0 0
8:53 am 08:53 Cloudy 53 11.7 29 -1.7 40 40 ESE 10 17 29.78 1009 10 16.0934 0 0
9:53 am 09:53 Cloudy 55 12.8 34 1.1 45 45 SE 8 13 29.77 1008 10 16.0934 0 0
10:53 am 10:53 Cloudy 58 14.4 34 1.1 41 41 E 17 28 29.72 1006 10 16.0934 0 0
11:53 am 11:53 Cloudy 57 13.9 34 1.1 42 42 E 15 24 29.65 1004 10 16.0934 0 0
12:53 pm 12:53 Cloudy 57 13.9 44 6.7 62 62 SE 12 19 29.59 1002 10 16.0934 0 0.0254
1:53 pm 13:53 Cloudy with Light Rain 54 12.2 46 7.8 75 75 NE 10 17 29.53 1000 9 14.48406 0.02 0.508
2:53 pm 14:53 Cloudy with Light Rain 53 11.7 48 8.9 83 83 WNW 6 9 29.52 1000 10 16.0934 0 0.0254
3:53 pm 15:53 Mostly Cloudy with Light Rain 54 12.2 46 7.8 75 75 VRB 5 7 29.46 998 10 16.0934 0.04 1.016
4:53 pm 16:53 Partly Cloudy 51 10.6 47 8.3 86 86 E 13 20 29.42 996 10 16.0934 0 0.0254
5:33 pm 17:33 Cloudy 55 12.8 40 4.4 57 57 W 20 31 29.35 994 10 16.0934 0 0
5:49 pm 17:49 Cloudy with Light Rain 52 11 39 4 62 62 W 23 37 29.38 995 10 16.0934 0 0.0254
5:53 pm 17:53 Cloudy with Light Rain 51 10.6 39 3.9 64 64 W 20 31 29.43 997 10 16.0934 0 0.0254
6:53 pm 18:53 Cloudy with Rain 49 9.4 41 5 74 74 WSW 14 22 29.47 998 8 12.87472 0.06 1.524
7:53 pm 19:53 Mostly Clear 49 9.4 40 4.4 71 71 S 9 15 29.42 996 10 16.0934 0.02 0.508
8:53 pm 20:53 Mostly Clear 48 8.9 36 2.2 63 63 SW 23 37 29.39 995 10 16.0934 0 0
9:53 pm 21:53 Clear 46 7.8 32 0 58 58 SW 20 31 29.38 995 10 16.0934 0 0
10:53 pm 22:53 Mostly Clear 43 6.1 30 -1.1 60 60 SSW 17 28 29.4 996 10 16.0934 0 0
11:53 pm 23:53 Cloudy 44 6.7 33 0.6 65 65 WNW 13 20 29.42 996 10 16.0934 0 0

Powered by AerisWeather